Location: Bayshore Village Mobile Home Park
(26.6945°N, 81.8642°W)
Time: 00:03:46
(UTC+00:00)

Hubble Space Telescope - Pass Details

Date: 29 October 2021
Orbit: 534 x 538 km, 28.5° (Epoch: 30 November)

Event Time Altitude Azimuth Distance (km) Brightness Sun altitude
Rises 01:02:52 0° 262° (W) 2,661 5.5 -30.8°
Reaches altitude 10° 01:05:08 10° 263° (W) 1,772 4.3 -31.3°
Enters shadow 01:06:41 22° 265° (W) 1,177 3.1 -31.6°
